This is the latest recevied weather packets stored in our database for station/object DB0BGL. If no packets are shown the sender has not sent any weather packets the latest 10 day(s).
| Time | Temp. | Humidity | Pressure | Rain* | Wind** | Luminosity | Snow |
|---|---|---|---|---|---|---|---|
| 1777893148 | 17.22° C | 45% | 0 hPa | 0 mm | - | - | - |
| 1777892547 | 16.11° C | 46% | 0 hPa | 0 mm | - | - | - |
| 1777891948 | 16.11° C | 48% | 0 hPa | 0 mm | - | - | - |
| 1777891346 | 15° C | 50% | 0 hPa | 0 mm | - | - | - |
| 1777890746 | 15° C | 52% | 0 hPa | 0 mm | - | - | - |
| 1777890145 | 15.56° C | 51% | 0 hPa | 0 mm | - | - | - |
| 1777889544 | 15.56° C | 51% | 0 hPa | 0 mm | - | - | - |
| 1777888944 | 15° C | 54% | 0 hPa | 0 mm | - | - | - |
| 1777888343 | 15° C | 54% | 0 hPa | 0 mm | - | - | - |
| 1777875833 | 13.89° C | 49% | 0 hPa | 0 mm | - | - | - |
| 1777875232 | 15° C | 47% | 0 hPa | 0 mm | - | - | - |
| 1777827351 | 15° C | 45% | 0 hPa | 0 mm | - | - | - |
| 1777814785 | 22.22° C | 19% | 0 hPa | 0 mm | - | - | - |
| 1777814181 | 22.78° C | 21% | 0 hPa | 0 mm | - | - | - |
| 1777813580 | 23.33° C | 100% | 0 hPa | 0 mm | - | - | - |
| 1777812981 | 23.33° C | 100% | 0 hPa | 0 mm | - | - | - |
| 1777812379 | 22.78° C | 23% | 0 hPa | 0 mm | - | - | - |
| 1777811778 | 22.78° C | 20% | 0 hPa | 0 mm | - | - | - |
| 1777811178 | 22.22° C | 100% | 0 hPa | 0 mm | - | - | - |
| 1777810577 | 20.56° C | 28% | 0 hPa | 0 mm | - | - | - |
| 1777809977 | 20° C | 26% | 0 hPa | 0 mm | - | - | - |
| 1777809377 | 19.44° C | 100% | 0 hPa | 0 mm | - | - | - |
| 1777808775 | 18.89° C | 100% | 0 hPa | 0 mm | - | - | - |
| 1777808178 | 18.89° C | 31% | 0 hPa | 0 mm | - | - | - |
| 1777807579 | 18.89° C | 31% | 0 hPa | 0 mm | - | - | - |
* Rain latest hour (hover to see other rain measurements)
** Current wind speed in m/s (hover to see current wind gust speed)